TimeMDT,TemperatureF,Dew PointF,Humidity,Sea Level PressureIn,VisibilityMPH,Wind Direction,Wind SpeedMPH,Gust SpeedMPH,PrecipitationIn,Events,Conditions,WindDirDegrees,DateUTC
12:51 AM,77.0,60.1,56,29.79,10.0,South,6.9,-,N/A,,Scattered Clouds,170,2013-07-22 06:51:00
1:51 AM,73.9,60.1,62,29.78,10.0,SW,9.2,-,N/A,,Scattered Clouds,220,2013-07-22 07:51:00
2:51 AM,75.9,57.9,54,29.77,10.0,WSW,17.3,-,N/A,,Scattered Clouds,240,2013-07-22 08:51:00
3:51 AM,73.9,61.0,64,29.77,10.0,SSW,10.4,-,N/A,,Scattered Clouds,210,2013-07-22 09:51:00
4:51 AM,75.0,61.0,62,29.77,10.0,WSW,9.2,-,N/A,,Scattered Clouds,240,2013-07-22 10:51:00
5:51 AM,73.9,61.0,64,29.78,10.0,SW,6.9,-,N/A,,Scattered Clouds,220,2013-07-22 11:51:00
6:51 AM,75.0,61.0,62,29.79,10.0,WSW,10.4,-,N/A,,Scattered Clouds,240,2013-07-22 12:51:00
7:51 AM,75.9,61.0,60,29.81,10.0,SW,10.4,-,N/A,,Scattered Clouds,230,2013-07-22 13:51:00
8:51 AM,79.0,62.1,56,29.83,10.0,SW,10.4,-,N/A,,Scattered Clouds,220,2013-07-22 14:51:00
9:51 AM,82.0,62.1,51,29.82,10.0,SW,10.4,-,N/A,,Scattered Clouds,220,2013-07-22 15:51:00
10:51 AM,84.0,61.0,46,29.82,10.0,WSW,10.4,-,N/A,,Scattered Clouds,240,2013-07-22 16:51:00
11:51 AM,87.1,59.0,39,29.81,10.0,WSW,9.2,-,N/A,,Scattered Clouds,250,2013-07-22 17:51:00
12:51 PM,90.0,59.0,35,29.78,10.0,West,9.2,-,N/A,,Scattered Clouds,260,2013-07-22 18:51:00
1:51 PM,91.0,59.0,34,29.76,10.0,Calm,Calm,-,N/A,,Scattered Clouds,0,2013-07-22 19:51:00
2:51 PM,91.9,57.9,32,29.73,10.0,SSW,8.1,-,N/A,,Scattered Clouds,210,2013-07-22 20:51:00
3:51 PM,91.9,55.0,29,29.70,10.0,NNW,6.9,16.1,N/A,,Mostly Cloudy,340,2013-07-22 21:51:00
4:51 PM,93.0,54.0,27,29.69,10.0,NE,6.9,-,N/A,Thunderstorm,Thunderstorm,40,2013-07-22 22:51:00
5:51 PM,84.0,57.9,41,29.72,10.0,South,17.3,24.2,N/A,Thunderstorm,Thunderstorm,180,2013-07-22 23:51:00
6:17 PM,84.2,57.2,40,29.93,10.0,South,16.1,19.6,N/A,,Mostly Cloudy,170,2013-07-23 00:17:00
6:51 PM,87.1,55.0,33,29.71,10.0,SSE,12.7,-,N/A,,Mostly Cloudy,150,2013-07-23 00:51:00
7:51 PM,80.1,61.0,52,29.76,10.0,South,15.0,-,0.00,,Mostly Cloudy,180,2013-07-23 01:51:00
8:51 PM,78.1,62.1,58,29.77,10.0,South,13.8,-,N/A,,Mostly Cloudy,190,2013-07-23 02:51:00
9:51 PM,75.9,64.0,67,29.80,10.0,South,12.7,-,N/A,,Mostly Cloudy,190,2013-07-23 03:51:00
10:09 PM,77.0,60.8,57,30.02,10.0,WSW,20.7,-,N/A,,Mostly Cloudy,250,2013-07-23 04:09:00
10:51 PM,75.9,61.0,60,29.81,10.0,WSW,23.0,28.8,N/A,,Mostly Cloudy,250,2013-07-23 04:51:00
11:51 PM,75.0,61.0,62,29.82,10.0,SW,19.6,26.5,N/A,,Mostly Cloudy,230,2013-07-23 05:51:00